User: anonymous   Login
Location: *
(2.5500°S, 65.9667°W)
Time: 08:15:41
(UTC+00:00)
Language:

Cosmos 2219 Rocket - Orbit

View from above orbital plane
View from above orbital plane
View from above satellite
View from above satellite

Ground track
Ground track

The orbit data is extracted from the following two-line orbital elements,

1 22220U 92076B   22024.64865146  .00000014  00000-0  31030-4 0  9998
2 22220  71.0011 117.5932 0014788 235.3215 227.4686 14.16484786508688
Epoch (UTC): 24 January 2022 15:34:03
Eccentricity: 0.0014788
inclination: 71.0011°
perigee height: 826 km
apogee height: 848 km
right ascension of ascending node: 117.5932°
argument of perigee: 235.3215°
revolutions per day: 14.16484786
mean anomaly at epoch: 227.4686°
orbit number at epoch: 50868

The dashed part of the orbit path shows where the satellite is in the earth's shadow,  

DLR